contact:dominique.lefevre@mio.osupytheas.fr, maurice.libes@osupytheas.fr, didier.mallarino@osupytheas.fr
Project:EMSO http://www.emso-fr.org/EMSO-France
Depth: 2436.0 m
Title:EMSO Ligure Ouest : Data MII capteur CSTAR
DateTime,Latitude,Longitude,Instrument_Serial,Reference_Counts,Signal_Counts,Corrected_Signal_raw_counts,Calculated_Beam_c_inverse_meters,Internal_thermistor_counts
DateTime,Latitude,Longitude,Instrument_Serial,Reference_Counts,Signal_Counts,Corrected_Signal_raw_counts,Calculated_Beam_c_inverse_meters,Internal_thermistor_counts
2020-06-29T00:01:34,42.805,6.029,CST-1368DR,6137,8597,15134,0.125,551
2020-06-29T00:04:36,42.805,6.029,CST-1368DR,6137,8598,15134,0.125,551
2020-06-29T00:07:38,42.805,6.029,CST-1368DR,6137,8599,15136,0.125,551
2020-06-29T00:10:40,42.805,6.029,CST-1368DR,6137,8598,15136,0.125,551
2020-06-29T00:13:41,42.805,6.029,CST-1368DR,6137,8597,15134,0.125,551
2020-06-29T00:16:43,42.805,6.029,CST-1368DR,6137,8597,15133,0.126,551
2020-06-29T00:19:45,42.805,6.029,CST-1368DR,6137,8598,15134,0.125,551
2020-06-29T00:22:46,42.805,6.029,CST-1368DR,6137,8599,15136,0.125,550
2020-06-29T00:25:48,42.805,6.029,CST-1368DR,6137,8598,15135,0.125,551
2020-06-29T00:28:50,42.805,6.029,CST-1368DR,6137,8598,15136,0.125,551
2020-06-29T00:31:51,42.805,6.029,CST-1368DR,6137,8598,15135,0.125,551
2020-06-29T00:34:53,42.805,6.029,CST-1368DR,6137,8598,15135,0.125,551
2020-06-29T00:37:55,42.805,6.029,CST-1368DR,6137,8598,15134,0.125,551
2020-06-29T00:40:56,42.805,6.029,CST-1368DR,6137,8598,15135,0.125,550
2020-06-29T00:43:58,42.805,6.029,CST-1368DR,6137,8599,15136,0.125,551
2020-06-29T00:47:00,42.805,6.029,CST-1368DR,6137,8597,15133,0.126,551
2020-06-29T00:50:01,42.805,6.029,CST-1368DR,6137,8598,15135,0.125,551
2020-06-29T00:53:03,42.805,6.029,CST-1368DR,6137,8599,15136,0.125,551
2020-06-29T00:56:05,42.805,6.029,CST-1368DR,6137,8599,15136,0.125,551
2020-06-29T00:59:06,42.805,6.029,CST-1368DR,6137,8598,15136,0.125,551
2020-06-29T01:02:08,42.805,6.029,CST-1368DR,6137,8598,15136,0.125,551
2020-06-29T01:05:10,42.805,6.029,CST-1368DR,6137,8599,15136,0.125,551
2020-06-29T01:08:12,42.805,6.029,CST-1368DR,6137,8598,15135,0.125,551
2020-06-29T01:11:13,42.805,6.029,CST-1368DR,6137,8598,15135,0.125,551
2020-06-29T01:14:15,42.805,6.029,CST-1368DR,6137,8598,15136,0.125,551
2020-06-29T01:17:17,42.805,6.029,CST-1368DR,6137,8598,15135,0.125,551
2020-06-29T01:20:18,42.805,6.029,CST-1368DR,6137,8598,15135,0.125,551
2020-06-29T01:23:20,42.805,6.029,CST-1368DR,6137,8598,15135,0.125,550
2020-06-29T01:26:22,42.805,6.029,CST-1368DR,6137,8598,15135,0.125,551
2020-06-29T01:29:23,42.805,6.029,CST-1368DR,6137,8598,15134,0.125,551
2020-06-29T01:32:25,42.805,6.029,CST-1368DR,6137,8598,15136,0.125,551
2020-06-29T01:35:27,42.805,6.029,CST-1368DR,6137,8598,15135,0.125,551
2020-06-29T01:38:28,42.805,6.029,CST-1368DR,6137,8599,15137,0.125,551
2020-06-29T01:41:30,42.805,6.029,CST-1368DR,6137,8597,15134,0.125,551
2020-06-29T01:44:32,42.805,6.029,CST-1368DR,6137,8598,15135,0.125,551
2020-06-29T01:47:34,42.805,6.029,CST-1368DR,6136,8598,15138,0.124,551
2020-06-29T01:50:35,42.805,6.029,CST-1368DR,6137,8598,15134,0.125,551
2020-06-29T01:53:37,42.805,6.029,CST-1368DR,6136,8597,15136,0.125,551
2020-06-29T01:56:39,42.805,6.029,CST-1368DR,6136,8598,15138,0.124,551
2020-06-29T01:59:40,42.805,6.029,CST-1368DR,6136,8598,15137,0.125,551
2020-06-29T02:02:42,42.805,6.029,CST-1368DR,6136,8597,15136,0.125,551
2020-06-29T02:05:44,42.805,6.029,CST-1368DR,6136,8598,15137,0.125,551
2020-06-29T02:08:45,42.805,6.029,CST-1368DR,6136,8597,15136,0.125,551
2020-06-29T02:11:47,42.805,6.029,CST-1368DR,6136,8598,15137,0.125,551
2020-06-29T02:14:49,42.805,6.029,CST-1368DR,6136,8598,15138,0.124,551
2020-06-29T02:17:51,42.805,6.029,CST-1368DR,6136,8598,15138,0.124,551
2020-06-29T02:20:52,42.805,6.029,CST-1368DR,6136,8598,15137,0.125,551
2020-06-29T02:23:54,42.805,6.029,CST-1368DR,6136,8598,15138,0.124,551
2020-06-29T02:26:56,42.805,6.029,CST-1368DR,6136,8597,15136,0.125,551
2020-06-29T02:29:57,42.805,6.029,CST-1368DR,6136,8598,15137,0.125,551
2020-06-29T02:32:59,42.805,6.029,CST-1368DR,6136,8598,15137,0.125,551
2020-06-29T02:36:01,42.805,6.029,CST-1368DR,6136,8595,15132,0.126,551
2020-06-29T02:39:02,42.805,6.029,CST-1368DR,6136,8598,15138,0.124,551
2020-06-29T02:42:04,42.805,6.029,CST-1368DR,6136,8597,15136,0.125,551
2020-06-29T02:45:06,42.805,6.029,CST-1368DR,6136,8598,15137,0.125,551
2020-06-29T02:48:07,42.805,6.029,CST-1368DR,6136,8597,15136,0.125,551
2020-06-29T02:51:09,42.805,6.029,CST-1368DR,6136,8597,15136,0.125,551
2020-06-29T02:54:11,42.805,6.029,CST-1368DR,6136,8597,15135,0.125,551
2020-06-29T02:57:13,42.805,6.029,CST-1368DR,6136,8598,15138,0.124,551
2020-06-29T03:00:14,42.805,6.029,CST-1368DR,6136,8597,15136,0.125,551
2020-06-29T03:03:16,42.805,6.029,CST-1368DR,6136,8596,15134,0.125,551
2020-06-29T03:06:18,42.805,6.029,CST-1368DR,6136,8598,15138,0.124,551
2020-06-29T03:09:20,42.805,6.029,CST-1368DR,6136,8598,15137,0.125,551
2020-06-29T03:12:21,42.805,6.029,CST-1368DR,6136,8598,15137,0.125,551
2020-06-29T03:15:23,42.805,6.029,CST-1368DR,6136,8598,15138,0.124,551
2020-06-29T03:18:25,42.805,6.029,CST-1368DR,6136,8598,15137,0.125,551
2020-06-29T03:21:26,42.805,6.029,CST-1368DR,6136,8597,15136,0.125,551
2020-06-29T03:24:28,42.805,6.029,CST-1368DR,6136,8598,15137,0.125,551
2020-06-29T03:27:30,42.805,6.029,CST-1368DR,6136,8597,15136,0.125,551
2020-06-29T03:30:31,42.805,6.029,CST-1368DR,6136,8596,15134,0.125,551
2020-06-29T03:33:33,42.805,6.029,CST-1368DR,6136,8597,15136,0.125,550
2020-06-29T03:36:35,42.805,6.029,CST-1368DR,6136,8597,15136,0.125,551
2020-06-29T03:39:36,42.805,6.029,CST-1368DR,6136,8598,15137,0.125,551
2020-06-29T03:42:38,42.805,6.029,CST-1368DR,6136,8597,15136,0.125,551
2020-06-29T03:45:40,42.805,6.029,CST-1368DR,6136,8597,15136,0.125,551
2020-06-29T03:48:42,42.805,6.029,CST-1368DR,6136,8597,15136,0.125,551
2020-06-29T03:51:43,42.805,6.029,CST-1368DR,6136,8598,15137,0.125,551
2020-06-29T03:54:45,42.805,6.029,CST-1368DR,6136,8598,15137,0.125,551
2020-06-29T03:57:47,42.805,6.029,CST-1368DR,6136,8598,15137,0.125,551
2020-06-29T04:00:49,42.805,6.029,CST-1368DR,6136,8598,15138,0.124,551
2020-06-29T04:03:50,42.805,6.029,CST-1368DR,6136,8598,15138,0.124,551
2020-06-29T04:06:52,42.805,6.029,CST-1368DR,6136,8597,15136,0.125,550
2020-06-29T04:09:54,42.805,6.029,CST-1368DR,6136,8595,15132,0.126,551
2020-06-29T04:12:55,42.805,6.029,CST-1368DR,6136,8598,15138,0.124,551
2020-06-29T04:15:57,42.805,6.029,CST-1368DR,6136,8597,15136,0.125,551
2020-06-29T04:18:59,42.805,6.029,CST-1368DR,6136,8596,15134,0.125,551
2020-06-29T04:22:00,42.805,6.029,CST-1368DR,6136,8597,15136,0.125,551
2020-06-29T04:25:02,42.805,6.029,CST-1368DR,6136,8598,15137,0.125,551
2020-06-29T04:28:04,42.805,6.029,CST-1368DR,6136,8598,15138,0.124,551
2020-06-29T04:31:05,42.805,6.029,CST-1368DR,6136,8598,15137,0.125,551
2020-06-29T04:34:07,42.805,6.029,CST-1368DR,6136,8598,15137,0.125,551
2020-06-29T04:37:09,42.805,6.029,CST-1368DR,6136,8598,15138,0.124,551
2020-06-29T04:40:10,42.805,6.029,CST-1368DR,6136,8597,15136,0.125,551
2020-06-29T04:43:12,42.805,6.029,CST-1368DR,6136,8598,15137,0.125,551
2020-06-29T04:46:14,42.805,6.029,CST-1368DR,6136,8597,15136,0.125,551
2020-06-29T04:49:15,42.805,6.029,CST-1368DR,6136,8597,15136,0.125,551
2020-06-29T04:52:17,42.805,6.029,CST-1368DR,6136,8597,15136,0.125,551
2020-06-29T04:55:19,42.805,6.029,CST-1368DR,6136,8597,15136,0.125,551
2020-06-29T04:58:21,42.805,6.029,CST-1368DR,6136,8597,15136,0.125,551
2020-06-29T05:01:22,42.805,6.029,CST-1368DR,6136,8597,15136,0.125,551
2020-06-29T05:04:24,42.805,6.029,CST-1368DR,6136,8597,15136,0.125,551
2020-06-29T05:07:26,42.805,6.029,CST-1368DR,6136,8597,15136,0.125,551
2020-06-29T05:10:28,42.805,6.029,CST-1368DR,6136,8596,15135,0.125,551
2020-06-29T05:13:29,42.805,6.029,CST-1368DR,6136,8597,15136,0.125,551
2020-06-29T05:16:31,42.805,6.029,CST-1368DR,6136,8597,15136,0.125,551
2020-06-29T05:19:33,42.805,6.029,CST-1368DR,6136,8596,15134,0.125,551
2020-06-29T05:22:34,42.805,6.029,CST-1368DR,6136,8598,15137,0.125,551
2020-06-29T05:25:36,42.805,6.029,CST-1368DR,6136,8597,15136,0.125,551
2020-06-29T05:28:38,42.805,6.029,CST-1368DR,6136,8597,15136,0.125,551
2020-06-29T05:31:39,42.805,6.029,CST-1368DR,6136,8598,15137,0.125,551
2020-06-29T05:34:41,42.805,6.029,CST-1368DR,6136,8597,15136,0.125,551
2020-06-29T05:37:43,42.805,6.029,CST-1368DR,6136,8596,15135,0.125,551
2020-06-29T05:40:44,42.805,6.029,CST-1368DR,6136,8597,15136,0.125,551
2020-06-29T05:43:46,42.805,6.029,CST-1368DR,6136,8597,15135,0.125,551
2020-06-29T05:46:48,42.805,6.029,CST-1368DR,6136,8596,15135,0.125,551
2020-06-29T05:49:50,42.805,6.029,CST-1368DR,6136,8596,15134,0.125,551
2020-06-29T05:52:51,42.805,6.029,CST-1368DR,6136,8597,15136,0.125,551
2020-06-29T05:55:53,42.805,6.029,CST-1368DR,6136,8597,15136,0.125,551
2020-06-29T05:58:55,42.805,6.029,CST-1368DR,6136,8598,15137,0.125,551
2020-06-29T06:01:56,42.805,6.029,CST-1368DR,6136,8597,15136,0.125,551
2020-06-29T06:04:58,42.805,6.029,CST-1368DR,6136,8597,15136,0.125,551
2020-06-29T06:08:00,42.805,6.029,CST-1368DR,6136,8597,15136,0.125,551
2020-06-29T06:11:01,42.805,6.029,CST-1368DR,6136,8597,15135,0.125,551
2020-06-29T06:14:03,42.805,6.029,CST-1368DR,6136,8596,15135,0.125,551
2020-06-29T06:17:05,42.805,6.029,CST-1368DR,6136,8597,15136,0.125,551
2020-06-29T06:20:06,42.805,6.029,CST-1368DR,6136,8597,15136,0.125,551
2020-06-29T06:23:08,42.805,6.029,CST-1368DR,6136,8597,15136,0.125,551
2020-06-29T06:26:10,42.805,6.029,CST-1368DR,6136,8595,15133,0.126,551
2020-06-29T06:29:11,42.805,6.029,CST-1368DR,6136,8597,15135,0.125,551
2020-06-29T06:32:13,42.805,6.029,CST-1368DR,6136,8595,15132,0.126,550
2020-06-29T06:35:15,42.805,6.029,CST-1368DR,6136,8596,15135,0.125,551
2020-06-29T06:38:16,42.805,6.029,CST-1368DR,6136,8596,15134,0.125,551
2020-06-29T06:41:18,42.805,6.029,CST-1368DR,6136,8597,15136,0.125,551
2020-06-29T06:44:20,42.805,6.029,CST-1368DR,6136,8597,15136,0.125,551
2020-06-29T06:47:21,42.805,6.029,CST-1368DR,6136,8597,15136,0.125,551
2020-06-29T06:50:23,42.805,6.029,CST-1368DR,6135,8596,15137,0.125,551
2020-06-29T06:53:25,42.805,6.029,CST-1368DR,6136,8597,15136,0.125,551
2020-06-29T06:56:27,42.805,6.029,CST-1368DR,6136,8596,15135,0.125,551
2020-06-29T06:59:28,42.805,6.029,CST-1368DR,6136,8596,15135,0.125,551
2020-06-29T07:02:30,42.805,6.029,CST-1368DR,6136,8596,15135,0.125,551
2020-06-29T07:05:32,42.805,6.029,CST-1368DR,6136,8596,15135,0.125,551
2020-06-29T07:08:33,42.805,6.029,CST-1368DR,6136,8597,15136,0.125,551
2020-06-29T07:11:35,42.805,6.029,CST-1368DR,6136,8596,15135,0.125,551
2020-06-29T07:14:37,42.805,6.029,CST-1368DR,6136,8597,15135,0.125,551
2020-06-29T07:17:38,42.805,6.029,CST-1368DR,6136,8597,15135,0.125,551
2020-06-29T07:20:40,42.805,6.029,CST-1368DR,6136,8596,15135,0.125,551
2020-06-29T07:23:42,42.805,6.029,CST-1368DR,6135,8597,15138,0.124,551
2020-06-29T07:26:43,42.805,6.029,CST-1368DR,6135,8595,15135,0.125,551
2020-06-29T07:29:45,42.805,6.029,CST-1368DR,6135,8596,15137,0.125,551
2020-06-29T07:32:47,42.805,6.029,CST-1368DR,6135,8596,15137,0.125,551
2020-06-29T07:35:48,42.805,6.029,CST-1368DR,6135,8596,15137,0.125,551
2020-06-29T07:38:50,42.805,6.029,CST-1368DR,6135,8597,15138,0.124,551
2020-06-29T07:41:52,42.805,6.029,CST-1368DR,6135,8596,15137,0.125,551
2020-06-29T07:44:53,42.805,6.029,CST-1368DR,6135,8597,15138,0.124,551
2020-06-29T07:47:55,42.805,6.029,CST-1368DR,6135,8595,15135,0.125,551
2020-06-29T07:50:57,42.805,6.029,CST-1368DR,6135,8596,15137,0.125,551
2020-06-29T07:53:59,42.805,6.029,CST-1368DR,6136,8597,15136,0.125,551
2020-06-29T07:57:00,42.805,6.029,CST-1368DR,6135,8597,15139,0.124,550
2020-06-29T08:00:02,42.805,6.029,CST-1368DR,6135,8597,15137,0.125,551
2020-06-29T08:03:04,42.805,6.029,CST-1368DR,6135,8597,15138,0.124,551
2020-06-29T08:06:05,42.805,6.029,CST-1368DR,6135,8597,15137,0.125,551
2020-06-29T08:09:07,42.805,6.029,CST-1368DR,6135,8596,15137,0.125,551
2020-06-29T08:12:09,42.805,6.029,CST-1368DR,6135,8596,15137,0.125,551
2020-06-29T08:15:10,42.805,6.029,CST-1368DR,6135,8596,15136,0.125,550
2020-06-29T08:18:12,42.805,6.029,CST-1368DR,6135,8596,15137,0.125,551
2020-06-29T08:21:14,42.805,6.029,CST-1368DR,6135,8597,15138,0.124,551
2020-06-29T08:24:15,42.805,6.029,CST-1368DR,6135,8597,15137,0.125,551
2020-06-29T08:27:17,42.805,6.029,CST-1368DR,6135,8597,15137,0.125,551
2020-06-29T08:30:19,42.805,6.029,CST-1368DR,6135,8595,15134,0.125,551
2020-06-29T08:33:20,42.805,6.029,CST-1368DR,6135,8597,15137,0.125,551
2020-06-29T08:36:22,42.805,6.029,CST-1368DR,6135,8597,15138,0.124,551
2020-06-29T08:39:24,42.805,6.029,CST-1368DR,6135,8596,15137,0.125,551
2020-06-29T08:42:26,42.805,6.029,CST-1368DR,6135,8597,15137,0.125,551
2020-06-29T08:45:27,42.805,6.029,CST-1368DR,6135,8596,15137,0.125,551
2020-06-29T08:48:29,42.805,6.029,CST-1368DR,6135,8597,15137,0.125,551
2020-06-29T08:51:31,42.805,6.029,CST-1368DR,6135,8597,15138,0.124,551
2020-06-29T08:54:32,42.805,6.029,CST-1368DR,6135,8596,15137,0.125,551
2020-06-29T08:57:34,42.805,6.029,CST-1368DR,6135,8597,15137,0.125,551
2020-06-29T09:00:36,42.805,6.029,CST-1368DR,6135,8596,15137,0.125,551
2020-06-29T09:03:38,42.805,6.029,CST-1368DR,6135,8596,15137,0.125,551
2020-06-29T09:06:39,42.805,6.029,CST-1368DR,6135,8595,15135,0.125,551
2020-06-29T09:09:41,42.805,6.029,CST-1368DR,6135,8596,15137,0.125,551
2020-06-29T09:12:43,42.805,6.029,CST-1368DR,6135,8596,15136,0.125,551
2020-06-29T09:15:44,42.805,6.029,CST-1368DR,6135,8596,15137,0.125,551
2020-06-29T09:18:46,42.805,6.029,CST-1368DR,6135,8595,15134,0.125,551
2020-06-29T09:21:48,42.805,6.029,CST-1368DR,6135,8595,15135,0.125,551
2020-06-29T09:24:49,42.805,6.029,CST-1368DR,6135,8596,15137,0.125,551
2020-06-29T09:27:51,42.805,6.029,CST-1368DR,6135,8595,15134,0.125,551
2020-06-29T09:30:53,42.805,6.029,CST-1368DR,6135,8596,15137,0.125,551
2020-06-29T09:33:55,42.805,6.029,CST-1368DR,6135,8595,15135,0.125,551
2020-06-29T09:36:56,42.805,6.029,CST-1368DR,6135,8597,15137,0.125,551
2020-06-29T09:39:58,42.805,6.029,CST-1368DR,6135,8596,15137,0.125,551
2020-06-29T09:43:00,42.805,6.029,CST-1368DR,6135,8594,15133,0.126,551
2020-06-29T09:46:01,42.805,6.029,CST-1368DR,6135,8597,15138,0.124,551
2020-06-29T09:49:03,42.805,6.029,CST-1368DR,6135,8597,15137,0.125,551
2020-06-29T09:52:05,42.805,6.029,CST-1368DR,6135,8596,15137,0.125,551
2020-06-29T09:55:07,42.805,6.029,CST-1368DR,6135,8596,15136,0.125,551
2020-06-29T09:58:09,42.805,6.029,CST-1368DR,6135,8595,15135,0.125,551
2020-06-29T10:01:10,42.805,6.029,CST-1368DR,6135,8594,15133,0.126,551
2020-06-29T10:04:12,42.805,6.029,CST-1368DR,6135,8595,15135,0.125,551
2020-06-29T10:07:14,42.805,6.029,CST-1368DR,6135,8596,15136,0.125,551
2020-06-29T10:10:15,42.805,6.029,CST-1368DR,6135,8595,15135,0.125,551
2020-06-29T10:13:17,42.805,6.029,CST-1368DR,6135,8594,15133,0.126,551
2020-06-29T10:16:19,42.805,6.029,CST-1368DR,6135,8596,15137,0.125,551
2020-06-29T10:19:21,42.805,6.029,CST-1368DR,6135,8596,15137,0.125,551
2020-06-29T10:22:22,42.805,6.029,CST-1368DR,6135,8596,15137,0.125,551
2020-06-29T10:25:24,42.805,6.029,CST-1368DR,6135,8596,15137,0.125,551
2020-06-29T10:28:26,42.805,6.029,CST-1368DR,6135,8595,15134,0.125,551
2020-06-29T10:31:27,42.805,6.029,CST-1368DR,6135,8597,15137,0.125,551
2020-06-29T10:34:29,42.805,6.029,CST-1368DR,6135,8596,15137,0.125,551
2020-06-29T10:37:31,42.805,6.029,CST-1368DR,6135,8595,15135,0.125,551
2020-06-29T10:40:32,42.805,6.029,CST-1368DR,6135,8597,15138,0.124,551
2020-06-29T10:43:34,42.805,6.029,CST-1368DR,6135,8596,15137,0.125,551
2020-06-29T10:46:36,42.805,6.029,CST-1368DR,6135,8597,15137,0.125,551
2020-06-29T10:49:38,42.805,6.029,CST-1368DR,6135,8597,15137,0.125,551
2020-06-29T10:52:39,42.805,6.029,CST-1368DR,6135,8597,15138,0.124,550
2020-06-29T10:55:41,42.805,6.029,CST-1368DR,6135,8596,15137,0.125,551
2020-06-29T10:58:43,42.805,6.029,CST-1368DR,6135,8597,15138,0.124,551
2020-06-29T11:01:44,42.805,6.029,CST-1368DR,6135,8595,15135,0.125,551
2020-06-29T11:04:46,42.805,6.029,CST-1368DR,6135,8596,15137,0.125,551
2020-06-29T11:07:48,42.805,6.029,CST-1368DR,6135,8596,15137,0.125,551
2020-06-29T11:10:49,42.805,6.029,CST-1368DR,6135,8596,15137,0.125,551
2020-06-29T11:13:51,42.805,6.029,CST-1368DR,6135,8595,15135,0.125,551
2020-06-29T11:16:53,42.805,6.029,CST-1368DR,6135,8596,15137,0.125,551
2020-06-29T11:19:54,42.805,6.029,CST-1368DR,6135,8596,15136,0.125,551
2020-06-29T11:22:56,42.805,6.029,CST-1368DR,6135,8596,15137,0.125,551
2020-06-29T11:25:58,42.805,6.029,CST-1368DR,6135,8597,15137,0.125,551
2020-06-29T11:29:00,42.805,6.029,CST-1368DR,6135,8596,15137,0.125,551
2020-06-29T11:32:01,42.805,6.029,CST-1368DR,6135,8596,15137,0.125,551
2020-06-29T11:35:03,42.805,6.029,CST-1368DR,6135,8595,15135,0.125,551
2020-06-29T11:38:05,42.805,6.029,CST-1368DR,6135,8596,15137,0.125,551
2020-06-29T11:41:06,42.805,6.029,CST-1368DR,6135,8596,15136,0.125,551
2020-06-29T11:44:08,42.805,6.029,CST-1368DR,6135,8596,15137,0.125,551
2020-06-29T11:47:10,42.805,6.029,CST-1368DR,6135,8596,15137,0.125,551
2020-06-29T11:50:11,42.805,6.029,CST-1368DR,6135,8595,15135,0.125,551
2020-06-29T11:53:13,42.805,6.029,CST-1368DR,6135,8597,15138,0.124,551
2020-06-29T11:56:15,42.805,6.029,CST-1368DR,6135,8596,15137,0.125,551
2020-06-29T11:59:16,42.805,6.029,CST-1368DR,6135,8596,15137,0.125,551
2020-06-29T12:02:18,42.805,6.029,CST-1368DR,6135,8596,15137,0.125,551
2020-06-29T12:05:20,42.805,6.029,CST-1368DR,6135,8597,15137,0.125,551
2020-06-29T12:08:21,42.805,6.029,CST-1368DR,6135,8595,15135,0.125,551
2020-06-29T12:11:23,42.805,6.029,CST-1368DR,6135,8596,15137,0.125,551
2020-06-29T12:14:25,42.805,6.029,CST-1368DR,6135,8597,15137,0.125,551
2020-06-29T12:17:27,42.805,6.029,CST-1368DR,6135,8594,15133,0.126,551
2020-06-29T12:20:28,42.805,6.029,CST-1368DR,6135,8595,15135,0.125,551
2020-06-29T12:23:30,42.805,6.029,CST-1368DR,6135,8595,15134,0.125,551
2020-06-29T12:26:32,42.805,6.029,CST-1368DR,6135,8596,15136,0.125,551
2020-06-29T12:29:33,42.805,6.029,CST-1368DR,6135,8595,15135,0.125,551
2020-06-29T12:32:35,42.805,6.029,CST-1368DR,6135,8596,15136,0.125,551
2020-06-29T12:35:37,42.805,6.029,CST-1368DR,6135,8595,15135,0.125,551
2020-06-29T12:38:38,42.805,6.029,CST-1368DR,6135,8595,15134,0.125,551
2020-06-29T12:41:40,42.805,6.029,CST-1368DR,6135,8595,15134,0.125,551
2020-06-29T12:44:42,42.805,6.029,CST-1368DR,6135,8596,15137,0.125,551
2020-06-29T12:47:43,42.805,6.029,CST-1368DR,6135,8595,15135,0.125,551
2020-06-29T12:50:45,42.805,6.029,CST-1368DR,6135,8595,15135,0.125,551
2020-06-29T12:53:47,42.805,6.029,CST-1368DR,6135,8596,15137,0.125,551
2020-06-29T12:56:48,42.805,6.029,CST-1368DR,6135,8595,15135,0.125,551
2020-06-29T12:59:50,42.805,6.029,CST-1368DR,6135,8596,15137,0.125,551
2020-06-29T13:02:52,42.805,6.029,CST-1368DR,6135,8596,15137,0.125,551
2020-06-29T13:05:54,42.805,6.029,CST-1368DR,6135,8596,15137,0.125,551
2020-06-29T13:08:55,42.805,6.029,CST-1368DR,6135,8591,15128,0.127,551
2020-06-29T13:11:57,42.805,6.029,CST-1368DR,6135,8595,15135,0.125,551
2020-06-29T13:14:59,42.805,6.029,CST-1368DR,6135,8595,15134,0.125,551
2020-06-29T13:18:00,42.805,6.029,CST-1368DR,6135,8596,15136,0.125,551
2020-06-29T13:21:02,42.805,6.029,CST-1368DR,6135,8595,15134,0.125,551
2020-06-29T13:24:04,42.805,6.029,CST-1368DR,6135,8594,15133,0.126,551
2020-06-29T13:27:05,42.805,6.029,CST-1368DR,6135,8596,15136,0.125,551
2020-06-29T13:30:07,42.805,6.029,CST-1368DR,6135,8595,15134,0.125,551
2020-06-29T13:33:09,42.805,6.029,CST-1368DR,6135,8595,15135,0.125,551
2020-06-29T13:36:10,42.805,6.029,CST-1368DR,6135,8594,15133,0.126,551
2020-06-29T13:39:12,42.805,6.029,CST-1368DR,6135,8595,15135,0.125,551
2020-06-29T13:42:14,42.805,6.029,CST-1368DR,6135,8595,15135,0.125,551
2020-06-29T13:45:16,42.805,6.029,CST-1368DR,6135,8595,15135,0.125,551
2020-06-29T13:48:17,42.805,6.029,CST-1368DR,6135,8596,15136,0.125,551
2020-06-29T13:51:19,42.805,6.029,CST-1368DR,6135,8595,15135,0.125,551
2020-06-29T13:54:21,42.805,6.029,CST-1368DR,6135,8594,15133,0.126,551
2020-06-29T13:57:22,42.805,6.029,CST-1368DR,6135,8595,15135,0.125,551
2020-06-29T14:00:24,42.805,6.029,CST-1368DR,6135,8596,15136,0.125,551
2020-06-29T14:03:26,42.805,6.029,CST-1368DR,6135,8595,15135,0.125,551
2020-06-29T14:06:27,42.805,6.029,CST-1368DR,6134,8593,15134,0.125,551
2020-06-29T14:09:29,42.805,6.029,CST-1368DR,6135,8595,15135,0.125,551
2020-06-29T14:12:31,42.805,6.029,CST-1368DR,6135,8595,15135,0.125,551
2020-06-29T14:15:32,42.805,6.029,CST-1368DR,6135,8595,15134,0.125,551
2020-06-29T14:18:34,42.805,6.029,CST-1368DR,6135,8595,15135,0.125,551
2020-06-29T14:21:36,42.805,6.029,CST-1368DR,6135,8595,15135,0.125,551
2020-06-29T14:24:37,42.805,6.029,CST-1368DR,6135,8596,15137,0.125,550
2020-06-29T14:27:39,42.805,6.029,CST-1368DR,6135,8595,15134,0.125,551
2020-06-29T14:30:41,42.805,6.029,CST-1368DR,6134,8595,15137,0.125,551
2020-06-29T14:33:42,42.805,6.029,CST-1368DR,6135,8595,15135,0.125,551
2020-06-29T14:36:44,42.805,6.029,CST-1368DR,6134,8595,15137,0.125,551
2020-06-29T14:39:46,42.805,6.029,CST-1368DR,6135,8596,15136,0.125,551
2020-06-29T14:42:48,42.805,6.029,CST-1368DR,6134,8595,15137,0.125,551
2020-06-29T14:45:49,42.805,6.029,CST-1368DR,6134,8595,15138,0.124,551
2020-06-29T14:48:51,42.805,6.029,CST-1368DR,6135,8595,15134,0.125,551
2020-06-29T14:51:53,42.805,6.029,CST-1368DR,6135,8595,15135,0.125,551
2020-06-29T14:54:54,42.805,6.029,CST-1368DR,6135,8595,15135,0.125,551
2020-06-29T14:57:56,42.805,6.029,CST-1368DR,6135,8594,15133,0.126,551
2020-06-29T15:00:58,42.805,6.029,CST-1368DR,6134,8595,15137,0.125,551
2020-06-29T15:03:59,42.805,6.029,CST-1368DR,6134,8596,15138,0.124,551
2020-06-29T15:07:01,42.805,6.029,CST-1368DR,6134,8595,15137,0.125,551
2020-06-29T15:10:03,42.805,6.029,CST-1368DR,6134,8595,15137,0.125,551
2020-06-29T15:13:04,42.805,6.029,CST-1368DR,6134,8595,15138,0.124,551
2020-06-29T15:16:06,42.805,6.029,CST-1368DR,6134,8595,15138,0.124,551
2020-06-29T15:19:08,42.805,6.029,CST-1368DR,6134,8595,15138,0.124,551
2020-06-29T15:22:10,42.805,6.029,CST-1368DR,6134,8595,15137,0.125,550
2020-06-29T15:25:11,42.805,6.029,CST-1368DR,6134,8595,15137,0.125,551
2020-06-29T15:28:13,42.805,6.029,CST-1368DR,6134,8593,15134,0.125,551
2020-06-29T15:31:15,42.805,6.029,CST-1368DR,6134,8595,15137,0.125,551
2020-06-29T15:34:16,42.805,6.029,CST-1368DR,6134,8595,15138,0.124,551
2020-06-29T15:37:18,42.805,6.029,CST-1368DR,6134,8595,15137,0.125,551
2020-06-29T15:40:20,42.805,6.029,CST-1368DR,6134,8594,15134,0.125,551
2020-06-29T15:43:21,42.805,6.029,CST-1368DR,6134,8596,15139,0.124,551
2020-06-29T15:46:23,42.805,6.029,CST-1368DR,6134,8595,15137,0.125,551
2020-06-29T15:49:25,42.805,6.029,CST-1368DR,6134,8595,15137,0.125,551
2020-06-29T15:52:26,42.805,6.029,CST-1368DR,6134,8595,15138,0.124,551
2020-06-29T15:55:28,42.805,6.029,CST-1368DR,6134,8595,15137,0.125,551
2020-06-29T15:58:30,42.805,6.029,CST-1368DR,6134,8595,15138,0.124,551
2020-06-29T16:01:32,42.805,6.029,CST-1368DR,6134,8595,15138,0.124,551
2020-06-29T16:04:33,42.805,6.029,CST-1368DR,6135,8595,15134,0.125,551
2020-06-29T16:07:35,42.805,6.029,CST-1368DR,6134,8595,15137,0.125,551
2020-06-29T16:10:37,42.805,6.029,CST-1368DR,6134,8595,15137,0.125,551
2020-06-29T16:13:38,42.805,6.029,CST-1368DR,6134,8595,15137,0.125,551
2020-06-29T16:16:40,42.805,6.029,CST-1368DR,6134,8595,15137,0.125,551
2020-06-29T16:19:42,42.805,6.029,CST-1368DR,6134,8595,15137,0.125,551
2020-06-29T16:22:43,42.805,6.029,CST-1368DR,6134,8595,15138,0.124,551
2020-06-29T16:25:45,42.805,6.029,CST-1368DR,6134,8596,15139,0.124,551
2020-06-29T16:28:47,42.805,6.029,CST-1368DR,6134,8595,15136,0.125,551
2020-06-29T16:31:49,42.805,6.029,CST-1368DR,6134,8594,15136,0.125,551
2020-06-29T16:34:50,42.805,6.029,CST-1368DR,6134,8595,15137,0.125,551
2020-06-29T16:37:52,42.805,6.029,CST-1368DR,6134,8595,15137,0.125,551
2020-06-29T16:40:54,42.805,6.029,CST-1368DR,6134,8593,15134,0.125,551
2020-06-29T16:43:55,42.805,6.029,CST-1368DR,6134,8595,15136,0.125,550
2020-06-29T16:46:57,42.805,6.029,CST-1368DR,6134,8594,15135,0.125,551
2020-06-29T16:49:59,42.805,6.029,CST-1368DR,6134,8595,15136,0.125,550
2020-06-29T16:53:01,42.805,6.029,CST-1368DR,6134,8595,15137,0.125,551